Location: Cahas Mountain Overlook
(37.0833°N, 80.1000°W)
Time: 02:16:52
(UTC-04:00)

Envisat - Visible Passes

Search period start: 24 September 2023 00:00
Search period end: 04 October 2023 00:00
Orbit: 763 x 764 km, 98.2° (Epoch: 23 September)

Date Brightness Start Highest point End Pass type
(mag) Time Alt. Az. Time Alt. Az. Time Alt. Az.
24 Sep 4.0 04:29:42 10° NNE 04:34:31 42° E 04:35:12 40° ESE visible
24 Sep 4.3 06:09:28 10° NNW 06:13:10 21° WNW 06:15:22 16° W visible
25 Sep 5.3 03:53:40 10° NE 03:57:05 18° E 03:57:28 18° E visible
25 Sep 3.2 05:31:25 10° N 05:36:15 46° WNW 05:37:37 37° WSW visible
26 Sep 3.0 04:54:04 10° NNE 04:59:09 76° ESE 04:59:52 64° SSE visible
26 Sep 4.8 06:35:35 10° NW 06:37:26 12° WNW 06:39:17 10° W visible
27 Sep 4.5 04:17:21 10° NE 04:21:51 32° E 04:22:07 31° ESE visible
27 Sep 4.0 05:56:29 10° NNW 06:00:40 27° WNW 06:02:17 22° W visible
28 Sep 5.7 03:41:57 10° ENE 03:44:21 13° E 03:44:21 13° E visible
28 Sep 2.9 05:18:42 10° N 05:23:42 61° WNW 05:24:32 53° WSW visible
29 Sep 3.4 04:41:32 10° NNE 04:46:32 57° E 04:46:46 56° ESE visible
29 Sep 4.6 06:22:02 10° NNW 06:25:01 16° WNW 06:26:56 13° W visible
30 Sep 5.0 04:05:06 10° NE 04:09:01 24° E 04:09:01 24° E visible
30 Sep 3.6 05:43:36 10° N 05:48:10 35° WNW 05:49:10 32° W visible
01 Oct 2.8 05:06:03 10° N 05:11:08 81° WNW 05:11:25 77° WSW visible
02 Oct 4.0 04:29:05 10° NNE 04:33:39 42° E 04:33:39 42° E visible
02 Oct 4.3 06:08:51 10° NNW 06:12:33 21° WNW 06:13:48 19° W visible
03 Oct 5.4 03:53:01 10° NE 03:55:52 18° E 03:55:52 18° E visible
03 Oct 3.2 05:30:48 10° N 05:35:38 46° WNW 05:36:03 45° W visible
